Skip Page Navigation
NASA JPL Caltech
NASA Logo - Jet Propulsion Laboratory + View the NASA Portal
+ Center for Near-Earth Object Studies
JPL Home Earth Solar System Stars & Galaxies Technology
JPL Solar System Dynamics
BODIES ORBITS EPHEMERIDES TOOLS PHYSICAL DATA DISCOVERY FAQ SITE MAP
JPL Small-Body Database Browser
Search: [ help ]  
67388 (2000 OZ44)
Classification: Main-belt Asteroid          SPK-ID: 2067388
Ephemeris | Orbit Diagram | Orbital Elements | Mission Design | Physical Parameters | Discovery Circumstances ]

[ show orbit diagram ]
Orbital Elements at Epoch 2459200.5 (2020-Dec-17.0) TDB
Reference: JPL 27 (heliocentric ecliptic J2000)
 Element Value Uncertainty (1-sigma)   Units 
e .170143223175317 4.3957e-08  
a 2.44174484390978 8.7067e-09 au
q 2.026298505995258 1.0716e-07 au
i 15.06392676154387 4.6272e-06 deg
node 169.5231507903482 1.4073e-05 deg
peri 161.953405333724 1.7896e-05 deg
M 126.2929566216543 9.7567e-06 deg
tp 2458711.593877800984
(2019-Aug-16.09387780)
3.7809e-05 TDB
period 1393.63436172392
3.82
7.4541e-06
2.041e-08
d
yr
n .2583173965046911 1.3816e-09 deg/d
Q 2.857191181824301 1.0188e-08 au
  Orbit Determination Parameters
   # obs. used (total)      904  
   data-arc span      8033 days (21.99 yr)  
   first obs. used      1999-03-23  
   last obs. used      2021-03-20  
   planetary ephem.      DE441  
   SB-pert. ephem.      SB441-N16  
   condition code      0  
   norm. resid. RMS      .54535  
   source      ORB  
   producer      Otto Matic  
   solution date      2021-May-04 07:04:14  

Additional Information
 Earth MOID = 1.01981 au 
 Jupiter MOID = 2.56415 au 
 T_jup = 3.435 
[ show covariance matrix ]

Ephemeris | Orbit Diagram | Orbital Elements | Mission Design | Physical Parameters | Discovery Circumstances ]

Physical Parameter Table
Parameter Symbol Value Units Sigma Reference Notes
absolute magnitude H 15.39   n/a MPCxxxxx  

67388 (2000 OZ44)          Discovered 2000-Jul-30 by LINEAR at Socorro
Reference: 20030910/Numbers.arcLast Updated: 2004-04-19
Ephemeris | Orbit Diagram | Orbital Elements | Mission Design | Physical Parameters | Discovery Circumstances ]
ABOUT SSD CREDITS/AWARDS PRIVACY/COPYRIGHT GLOSSARY LINKS
FirstGov 2021-Jun-23 09:03 UT
(server date/time)  
NASA Home Page
Site Manager:   Ryan S. Park
Webmaster  Alan B. Chamberlin